Regional Weather Roundup
Issued by NWS

Home | Current Version | Previous Version | Text Only | Print | Product List | Glossary Off
Versions: 1 2 3 4 5 6 7 8 9 10 11 12 13 14 15 16 17 18 19 20 21 22 23 24 25 26 27 28 29 30 31 32 33 34 35 36 37 38 39 40 41 42 43 44 45 46 47 48 49 50

000
ASUS43 KLMK 262002
RWRKY
KENTUCKY REGIONAL WEATHER ROUNDUP
NATIONAL WEATHER SERVICE LOUISVILLE KY
400 PM EDT FRI MAY 26 2017

NOTE "FAIR" INDICATES FEW OR NO CLOUDS BELOW 12,000 FEET
WITH NO SIGNIFICANT WEATHER AND/OR OBSTRUCTIONS TO VISIBILITY.

KYZ001>023-026-027-061>063-070>075-262100-
WESTERN AND SOUTH CENTRAL KENTUCKY

CITY           SKY/WX    TMP DP  RH WIND       PRES   REMARKS
PADUCAH        SUNNY     85  56  37 SW18G30   29.79R
HENDERSON      CLOUDY    82  59  45 S15G23    29.81F
OWENSBORO      SUNNY     82  65  56 S14       29.82F
HOPKINSVILLE   MOSUNNY   82  58  43 S17G25    29.83F
BOWLING GREEN  SUNNY     81  64  56 S15G24    29.86F
GLASGOW        NOT AVBL
$$

KYZ024-025-028>034-038-045-046-053-262100-
NORTH CENTRAL KENTUCKY

CITY           SKY/WX    TMP DP  RH WIND       PRES   REMARKS
LOUISVILLE/SDF PTSUNNY   81  63  54 S13       29.86F
LOUISVILLE/LOU PTSUNNY   79  62  56 S10       29.88R
FORT KNOX      PTSUNNY   78  64  61 S12       29.86S
$$

KYZ035>037-039>044-047>052-055>060-089>105-262100-
NORTHEAST KENTUCKY

CITY           SKY/WX    TMP DP  RH WIND       PRES   REMARKS
LEXINGTON      SUNNY     78  58  49 S13       29.91F
COVINGTON      MOSUNNY   77  57  50 SW12      29.88S
FRANKFORT      MOSUNNY   77  58  51 S9G17     29.88S
$$

KYZ054-064>069-076>088-106>120-262100-
SOUTHEAST KENTUCKY

CITY           SKY/WX    TMP DP  RH WIND       PRES   REMARKS
JACKSON        SUNNY     75  55  49 VRB5      29.94F
LONDON         SUNNY     78  54  43 SW8       29.95F
SOMERSET       MOSUNNY   77  57  50 S9        29.93F
MIDDLESBORO    SUNNY     79  56  45 S12       29.94F
MONTICELLO     PTCLDY    78  63  59 S14G23    29.93F
$$




USA.gov is the U.S. government's official web portal to all federal, state and local government web resources and services.